GW2617 Weather Reports


time (UTC)temp
F
wind
direction
speed
knots
gust
knots
rain 1hr
in
rain 24hr
in
rain mn
in
humidity
%
barometer
mb
20260505011913 69 2 9.6 9.6 0.00 0.00 0.00 32 1005.8
20260505011410 70 355 13.0 14.8 0.00 0.00 0.00 31 1005.9
20260505010906 71 5 11.3 12.2 0.00 0.00 0.00 32 1005.8
20260505010402 71 359 13.0 14.8 0.00 0.00 0.00 31 1005.3
20260505005858 72 2 10.4 12.2 0.00 0.00 0.00 31 1005.1
20260505005355 72 346 10.4 12.2 0.00 0.00 0.00 32 1005.2
20260505004853 73 16 13.0 14.8 0.00 0.00 0.00 32 1005.0
20260505004349 74 5 10.4 11.3 0.00 0.00 0.00 33 1004.8
20260505003847 75 359 12.2 13.0 0.00 0.00 0.00 33 1004.7
20260505003344 76 344 13.0 13.9 0.00 0.00 0.00 34 1004.6
20260505002839 76 348 7.8 8.7 0.00 0.00 0.00 34 1004.2
20260505002337 76 348 6.1 6.1 0.00 0.00 0.00 34 1004.4
20260505001835 77 349 6.1 7.0 0.00 0.00 0.00 33 1004.3
20260505001332 77 338 7.0 7.8 0.00 0.00 0.00 32 1004.3
20260505000829 77 357 6.1 6.1 0.00 0.00 0.00 31 1004.2
20260505000327 77 1 4.3 3.5 0.00 0.00 0.00 30 1004.1
20260504235823 78 324 1.7 1.7 0.00 0.00 0.00 28 1004.1
20260504235320 78 318 4.3 5.2 0.00 0.00 0.00 26 1004.0
20260504234817 79 304 6.1 7.0 0.00 0.00 0.00 26 1004.0
20260504234314 80 280 6.1 7.0 0.00 0.00 0.00 24 1004.0
20260504233811 80 304 5.2 5.2 0.00 0.00 0.00 24 1003.7
20260504233306 81 314 6.1 7.0 0.00 0.00 0.00 23 1003.9
20260504232803 81 299 5.2 7.0 0.00 0.00 0.00 23 1003.8
20260504232301 81 306 5.2 6.1 0.00 0.00 0.00 23 1004.0
20260504231757 81 289 8.7 11.3 0.00 0.00 0.00 22 1003.7
20260504231254 81 299 7.8 7.8 0.00 0.00 0.00 23 1004.0
20260504230750 82 302 3.5 3.5 0.00 0.00 0.00 23 1003.9
20260504230248 81 279 2.6 3.5 0.00 0.00 0.00 24 1003.9
20260504225747 81 301 6.1 7.0 0.00 0.00 0.00 23 1003.7
20260504225243 81 310 6.1 7.0 0.00 0.00 0.00 24 1004.0
20260504224740 81 302 7.8 8.7 0.00 0.00 0.00 24 1003.9
20260504224237 81 349 3.5 3.5 0.00 0.00 0.00 24 1004.0
20260504223733 81 303 4.3 5.2 0.00 0.00 0.00 26 1003.9
20260504223229 80 308 9.6 9.6 0.00 0.00 0.00 23 1003.9
20260504222726 81 327 9.6 13.0 0.00 0.00 0.00 23 1003.8
20260504222223 81 313 7.8 11.3 0.00 0.00 0.00 23 1003.7
20260504221720 81 332 9.6 9.6 0.00 0.00 0.00 25 1003.7
20260504221217 81 317 12.2 13.9 0.00 0.00 0.00 23 1003.7
20260504220714 81 315 8.7 9.6 0.00 0.00 0.00 24 1003.7
20260504220211 81 299 9.6 11.3 0.00 0.00 0.00 23 1003.6
20260504215708 82 303 10.4 14.8 0.00 0.00 0.00 24 1003.7
20260504215205 82 309 6.1 7.8 0.00 0.00 0.00 27 1003.6
20260504214700 83 293 6.1 7.8 0.00 0.00 0.00 24 1003.5
20260504214157 82 280 7.8 12.2 0.00 0.00 0.00 25 1003.6
20260504213654 83 308 10.4 12.2 0.00 0.00 0.00 25 1003.5
20260504213151 83 345 6.1 6.1 0.00 0.00 0.00 28 1003.6
20260504212647 84 357 4.3 7.8 0.00 0.00 0.00 26 1003.5
20260504212144 82 278 2.6 2.6 0.00 0.00 0.00 26 1003.6
20260504211642 80 316 3.5 3.5 0.00 0.00 0.00 28 1003.6
20260504211137 79 301 4.3 5.2 0.00 0.00 0.00 28 1003.6
20260504210636 80 301 7.0 7.0 0.00 0.00 0.00 27 1003.6
20260504210132 82 285 12.2 13.0 0.00 0.00 0.00 26 1003.6
20260504205629 83 289 7.8 8.7 0.00 0.00 0.00 26 1003.6
20260504205126 82 294 4.3 5.2 0.00 0.00 0.00 27 1003.7
20260504204625 81 300 7.0 7.8 0.00 0.00 0.00 30 1003.7
20260504204124 81 294 7.8 7.8 0.00 0.00 0.00 28 1003.8
20260504203622 81 300 8.7 8.7 0.00 0.00 0.00 28 1003.7
20260504203119 82 310 11.3 12.2 0.00 0.00 0.00 27 1003.7
20260504202614 82 292 6.1 7.0 0.00 0.00 0.00 29 1003.9
20260504202111 82 295 7.8 12.2 0.00 0.00 0.00 31 1003.6
20260504201608 81 304 3.5 5.2 0.00 0.00 0.00 32 1003.9
20260504201106 80 328 6.1 6.1 0.00 0.00 0.00 33 1003.9
20260504200602 80 318 5.2 6.1 0.00 0.00 0.00 31 1004.0
20260504200059 81 293 6.1 7.8 0.00 0.00 0.00 30 1003.7
20260504195555 82 315 13.0 13.9 0.00 0.00 0.00 30 1003.8
20260504195051 81 297 7.8 7.8 0.00 0.00 0.00 28 1003.8
20260504194548 82 236 7.0 7.8 0.00 0.00 0.00 30 1003.8
20260504194043 81 250 7.0 7.8 0.00 0.00 0.00 31 1003.9
20260504193540 81 260 4.3 6.1 0.00 0.00 0.00 31 1003.9
20260504193039 81 336 2.6 2.6 0.00 0.00 0.00 35 1003.9
20260504192537 81 251 7.8 7.8 0.00 0.00 0.00 31 1004.1
20260504192035 81 237 1.7 1.7 0.00 0.00 0.00 35 1004.1
20260504191532 81 272 6.1 7.8 0.00 0.00 0.00 33 1004.0
20260504191028 80 233 3.5 5.2 0.00 0.00 0.00 34 1004.0
20260504190525 81 267 7.8 9.6 0.00 0.00 0.00 33 1004.3
20260504190021 80 251 3.5 5.2 0.00 0.00 0.00 36 1004.0
20260504185518 81 281 5.2 6.1 0.00 0.00 0.00 34 1004.3
20260504185015 80 228 2.6 3.5 0.00 0.00 0.00 35 1004.3
20260504184510 80 225 5.2 6.1 0.00 0.00 0.00 34 1004.2
20260504184006 79 220 6.1 7.8 0.00 0.00 0.00 36 1004.3
20260504183503 80 292 7.8 8.7 0.00 0.00 0.00 38 1004.4
20260504183001 80 239 3.5 3.5 0.00 0.00 0.00 37 1004.1
20260504182457 79 281 4.3 5.2 0.00 0.00 0.00 36 1004.4
20260504181955 79 205 6.1 7.0 0.00 0.00 0.00 35 1004.6
20260504181452 79 270 5.2 7.0 0.00 0.00 0.00 36 1004.3
20260504180950 78 257 5.2 8.7 0.00 0.00 0.00 37 1004.3
20260504180449 78 207 7.0 8.7 0.00 0.00 0.00 37 1004.5
20260504175947 78 225 6.1 8.7 0.00 0.00 0.00 38 1004.3
20260504175443 79 239 8.7 9.6 0.00 0.00 0.00 37 1004.4
20260504174941 78 231 5.2 7.0 0.00 0.00 0.00 40 1004.6
20260504174439 78 241 3.5 3.5 0.00 0.00 0.00 40 1004.6
20260504173936 77 248 4.3 5.2 0.00 0.00 0.00 40 1004.5
20260504173432 77 245 7.0 8.7 0.00 0.00 0.00 39 1004.7
20260504172930 77 239 7.0 7.8 0.00 0.00 0.00 40 1004.6
20260504172425 77 242 5.2 6.1 0.00 0.00 0.00 40 1004.8
20260504171922 77 203 6.1 7.8 0.00 0.00 0.00 40 1004.8
20260504171419 76 230 4.3 5.2 0.00 0.00 0.00 40 1004.6
20260504170916 76 239 5.2 5.2 0.00 0.00 0.00 41 1004.8
20260504170413 76 243 6.1 7.0 0.00 0.00 0.00 41 1004.7
20260504160331 72 254 5.2 5.2 0.00 0.00 0.00 46 1005.1
20260504150756 71 251 7.0 8.7 0.00 0.00 0.00 45 1005.1
20260504150253 71 226 3.5 6.1 0.00 0.00 0.00 47 1004.9
20260504141223 67 245 6.1 7.0 0.00 0.00 0.00 52 1005.2
20260504140719 67 209 7.8 7.8 0.00 0.00 0.00 52 1005.2
20260504140215 66 267 3.5 5.2 0.00 0.00 0.00 55 1005.2
20260504130643 60 210 2.6 3.5 0.00 0.00 0.00 64 1005.5
20260504130140 59 205 1.7 1.7 0.00 0.00 0.00 66 1005.5
20260504120104 54 183 2.6 2.6 0.00 0.00 0.00 69 1005.8
20260504110531 53 126 0.9 0.9 0.00 0.00 0.00 67 1005.7
20260504100453 51 149 0.0 0.9 0.00 0.00 0.00 73 1006.4
20260504081846 49 204 0.0 0.0 0.00 0.00 0.00 86 1008.1
20260504081343 48 204 0.9 0.9 0.00 0.00 0.00 88 1008.2
20260504080839 48 204 0.0 0.0 0.00 0.00 0.00 87 1008.3
20260504080336 49 204 0.9 0.9 0.00 0.00 0.00 86 1008.2
20260504070303 52 164 0.0 0.0 0.00 0.00 0.00 74 1009.1
20260504060224 52 164 0.0 0.0 0.00 0.00 0.00 81 1010.1
20260504050652 53 211 0.9 0.9 0.00 0.00 0.00 77 1010.1
20260504050149 54 212 0.0 0.0 0.00 0.00 0.00 72 1010.2
20260504045646 54 212 0.0 0.0 0.00 0.00 0.00 71 1010.4
20260504045146 54 211 0.0 0.0 0.00 0.00 0.00 71 1010.3
20260504044644 55 212 0.0 0.0 0.00 0.00 0.00 68 1010.3
20260504044140 56 211 0.0 0.0 0.00 0.00 0.00 66 1010.2
20260504043637 56 212 0.0 0.0 0.00 0.00 0.00 63 1010.4
20260504043135 55 212 0.0 0.0 0.00 0.00 0.00 65 1010.3
20260504042632 55 212 0.0 0.0 0.00 0.00 0.00 67 1010.3
20260504042129 55 212 0.0 0.0 0.00 0.00 0.00 68 1010.4
20260504041624 54 211 0.0 0.0 0.00 0.00 0.00 69 1010.5
20260504041121 54 211 0.0 0.0 0.00 0.00 0.00 70 1010.4
20260504040618 55 212 0.0 0.0 0.00 0.00 0.00 71 1010.4
20260504040115 56 212 0.0 0.0 0.00 0.00 0.00 68 1010.7
20260504035612 56 212 0.0 0.0 0.00 0.00 0.00 64 1010.7
20260504035108 56 212 0.0 0.0 0.00 0.00 0.00 63 1010.7
20260504034606 56 212 0.9 0.0 0.00 0.00 0.00 64 1010.6
20260504034103 57 212 0.0 0.0 0.00 0.00 0.00 63 1010.9
20260504033601 57 212 0.0 0.0 0.00 0.00 0.00 60 1010.8
20260504033057 57 212 0.9 0.9 0.00 0.00 0.00 60 1011.0
20260504032554 57 212 0.9 0.9 0.00 0.00 0.00 61 1011.0
20260504032051 58 237 1.7 1.7 0.00 0.00 0.00 57 1011.2
20260504031548 59 263 1.7 1.7 0.00 0.00 0.00 57 1011.1
20260504031044 60 264 0.0 0.0 0.00 0.00 0.00 52 1011.2
20260504030542 59 264 0.9 0.9 0.00 0.00 0.00 53 1011.2
20260504030038 57 264 0.9 0.9 0.00 0.00 0.00 60 1011.1
20260504025535 58 23 1.7 0.9 0.00 0.00 0.00 63 1011.0
20260504025032 59 346 1.7 1.7 0.00 0.00 0.00 52 1011.2
20260504024529 58 275 1.7 0.9 0.00 0.00 0.00 59 1011.4
20260504024026 59 275 0.0 0.0 0.00 0.00 0.00 61 1010.9
20260504023522 58 275 0.0 0.0 0.00 0.00 0.00 62 1011.0
20260504023018 58 275 0.9 0.9 0.00 0.00 0.00 62 1011.3
20260504022514 58 274 0.0 0.0 0.00 0.00 0.00 64 1011.1
20260504022011 58 275 0.9 0.9 0.00 0.00 0.00 67 1011.1
20260504021509 59 274 0.0 0.0 0.00 0.00 0.00 64 1011.3
20260504021005 60 274 0.0 0.0 0.00 0.00 0.00 59 1011.2
20260504020502 61 275 0.0 0.0 0.00 0.00 0.00 51 1011.1
20260504015959 63 275 0.0 0.0 0.00 0.00 0.00 53 1011.3
20260504015455 65 274 0.0 0.0 0.00 0.00 0.00 39 1011.2
20260504014951 63 274 0.9 0.9 0.00 0.00 0.00 42 1011.2
20260504014447 64 274 0.9 0.9 0.00 0.00 0.00 48 1011.5
20260504013944 64 274 0.9 0.9 0.00 0.00 0.00 45 1011.0
20260504013443 64 274 0.0 0.0 0.00 0.00 0.00 43 1011.3
20260504012938 64 274 0.9 0.9 0.00 0.00 0.00 42 1011.5
20260504012437 65 274 0.0 0.0 0.00 0.00 0.00 47 1011.3